Weather History for O'Neill, NE

Change the Weather History Date:

Monday, July 15, 2013

  Actual Average Record
Temperature  
Mean Temperature 75 °F -  
Max Temperature 88 °F 87 °F 104 °F (2006)
Min Temperature 62 °F 60 °F 23 °F (1999)
Cooling Degree Days 10    
Growing Degree Days 25 (Base 50)    
Moisture  
Dew Point 57 °F    
Average Humidity 55    
Maximum Humidity 85    
Minimum Humidity 25    
Precipitation  
Precipitation 0.00 in - - ()
Sea Level Pressure  
Sea Level Pressure 30.18 in    
Wind  
Wind Speed 7 mph (SSE)    
Max Wind Speed 17 mph    
Max Gust Speed 23 mph    
Visibility 10 miles    
Events      
Averages and records for this station are not official NWS values.
T = Trace of Precipitation, MM = Missing Value Source: NWS Daily Summary

Daily Weather History Graph

Daily Weather History Graph

Search for Another Location

Airport:

Trip Planner

Search our weather history database for the weather conditions in past years. The results will help you decide how hot, cold, wet, or windy it might be!

Date:

Astronomy

Jul. 15, 2013 Rise Set
Actual Time 6:11 AM CDT 9:09 PM CDT
Civil Twilight 5:37 AM CDT 9:43 PM CDT
Nautical Twilight 4:54 AM CDT 10:26 PM CDT
Astronomical Twilight 4:04 AM CDT 11:16 PM CDT
Moon 1:42 PM CDT (7/15) 12:13 AM CDT (7/15)
Length of Visible Light 16h 05m
Length of Day
14h 58m
Waxing Crescent, 45% of the Moon is Illuminated
Jul 15
Waxing Crescent
Jul 15
First Quarter
Jul 22
Full
Jul 29
Last Quarter
Aug 6
New

Hourly Weather History & Observations

Time (CDT) Temp. Heat Index Dew Point Humidity Pressure Visibility Wind Dir Wind Speed Gust Speed Precip Events Conditions
12:15 AM 72.7 °F - 66.4 °F 81% 30.18 in 10.0 mi ESE 4.6 mph - N/A   Overcast
12:35 AM 72.5 °F - 66.4 °F 81% 30.18 in 10.0 mi ESE 4.6 mph - N/A   Overcast
12:55 AM 72.5 °F - 66.4 °F 81% 30.18 in 10.0 mi SE 5.8 mph - N/A   Overcast
1:15 AM 72.5 °F - 66.6 °F 82% 30.18 in 7.0 mi SE 5.8 mph - N/A   Overcast
1:35 AM 72.3 °F - 66.6 °F 82% 30.18 in 7.0 mi SE 5.8 mph - N/A   Overcast
1:55 AM 71.6 °F - 66.2 °F 83% 30.18 in 7.0 mi SE 5.8 mph - N/A   Mostly Cloudy
2:15 AM 71.1 °F - 65.7 °F 83% 30.18 in 7.0 mi SE 5.8 mph - N/A   Overcast
2:35 AM 70.7 °F - 64.0 °F 79% 30.18 in 7.0 mi SE 6.9 mph - N/A   Mostly Cloudy
2:55 AM 69.6 °F - 63.0 °F 79% 30.18 in 10.0 mi SSE 6.9 mph - N/A   Scattered Clouds
3:15 AM 68.9 °F - 62.1 °F 79% 30.18 in 10.0 mi SE 6.9 mph - N/A   Scattered Clouds
3:35 AM 68.4 °F - 61.3 °F 78% 30.18 in 10.0 mi SSE 5.8 mph - N/A   Clear
3:55 AM 67.3 °F - 60.8 °F 80% 30.18 in 10.0 mi SSE 4.6 mph - N/A   Clear
4:15 AM 66.2 °F - 59.9 °F 80% 30.18 in 10.0 mi SSE 5.8 mph - N/A   Clear
4:35 AM 64.6 °F - 59.4 °F 83% 30.18 in 10.0 mi SSE 3.5 mph - N/A   Clear
4:55 AM 64.8 °F - 59.0 °F 82% 30.18 in 10.0 mi SSE 3.5 mph - N/A   Clear
5:15 AM 64.2 °F - 58.8 °F 83% 30.18 in 10.0 mi SSE 4.6 mph - N/A   Clear
5:35 AM 63.9 °F - 58.5 °F 83% 30.19 in 10.0 mi SSE 5.8 mph - N/A   Clear
5:55 AM 63.5 °F - 58.3 °F 83% 30.19 in 7.0 mi SSE 4.6 mph - N/A   Clear
6:15 AM 63.1 °F - 58.1 °F 84% 30.19 in 7.0 mi SSE 3.5 mph - N/A   Clear
6:35 AM 62.8 °F - 58.1 °F 85% 30.19 in 7.0 mi Calm Calm - N/A   Clear
6:55 AM 63.5 °F - 58.3 °F 83% 30.20 in 7.0 mi SSE 3.5 mph - N/A   Clear
7:15 AM 64.2 °F - 58.6 °F 82% 30.20 in 7.0 mi SSE 4.6 mph - N/A   Clear
7:35 AM 65.5 °F - 59.0 °F 80% 30.21 in 10.0 mi SSE 4.6 mph - N/A   Clear
7:55 AM 66.6 °F - 59.4 °F 78% 30.21 in 10.0 mi SSE 4.6 mph - N/A   Clear
8:15 AM 68.4 °F - 59.9 °F 74% 30.21 in 10.0 mi SSE 5.8 mph - N/A   Clear
8:35 AM 70.2 °F - 60.3 °F 71% 30.21 in 10.0 mi South 5.8 mph - N/A   Clear
8:55 AM 72.0 °F - 60.6 °F 67% 30.22 in 10.0 mi South 6.9 mph - N/A   Clear
9:15 AM 73.6 °F - 60.3 °F 63% 30.22 in 10.0 mi South 8.1 mph - N/A   Clear
9:35 AM 75.0 °F - 60.3 °F 60% 30.22 in 10.0 mi SSE 9.2 mph - N/A   Clear
9:55 AM 77.0 °F - 59.7 °F 55% 30.22 in 10.0 mi SSE 9.2 mph - N/A   Clear
10:15 AM 78.4 °F - 58.8 °F 51% 30.22 in 10.0 mi SSE 8.1 mph - N/A   Clear
10:35 AM 79.7 °F - 57.9 °F 47% 30.22 in 10.0 mi South 10.4 mph - N/A   Clear
10:55 AM 81.0 °F 81.0 °F 57.0 °F 44% 30.22 in 10.0 mi South 10.4 mph - N/A   Clear
11:15 AM 82.0 °F 81.7 °F 57.0 °F 42% 30.21 in 10.0 mi South 12.7 mph 17.3 mph N/A   Clear
11:35 AM 83.1 °F 81.9 °F 53.8 °F 36% 30.21 in 10.0 mi SSE 10.4 mph - N/A   Scattered Clouds
11:55 AM 83.3 °F 82.1 °F 53.6 °F 36% 30.21 in 10.0 mi SSW 10.4 mph - N/A   Scattered Clouds
12:15 PM 84.7 °F 83.1 °F 53.6 °F 34% 30.21 in 10.0 mi South 12.7 mph 17.3 mph N/A   Scattered Clouds
12:35 PM 84.4 °F - 52.3 °F 33% 30.20 in 10.0 mi South 10.4 mph 16.1 mph N/A   Scattered Clouds
12:55 PM 86.0 °F - 50.0 °F 29% 30.19 in 10.0 mi South 12.7 mph - N/A   Scattered Clouds
1:15 PM 86.0 °F - 51.1 °F 30% 30.19 in 10.0 mi South 15.0 mph 19.6 mph N/A   Scattered Clouds
1:35 PM 85.6 °F - 49.8 °F 29% 30.19 in 10.0 mi South 11.5 mph 20.7 mph N/A   Scattered Clouds
1:55 PM 86.2 °F - 50.0 °F 29% 30.18 in 10.0 mi South 10.4 mph 18.4 mph N/A   Scattered Clouds
2:15 PM 86.9 °F - 48.6 °F 26% 30.17 in 10.0 mi SSE 17.3 mph - N/A   Clear
2:35 PM 86.7 °F - 49.8 °F 28% 30.17 in 10.0 mi SSE 13.8 mph 21.9 mph N/A   Scattered Clouds
2:55 PM 87.6 °F - 49.1 °F 26% 30.17 in 10.0 mi South 11.5 mph 23.0 mph N/A   Scattered Clouds
3:15 PM 86.9 °F - 49.1 °F 27% 30.17 in 10.0 mi South 13.8 mph 21.9 mph N/A   Scattered Clouds
3:35 PM 86.9 °F - 48.2 °F 26% 30.16 in 10.0 mi SSE 11.5 mph 19.6 mph N/A   Scattered Clouds
3:55 PM 87.8 °F - 49.1 °F 26% 30.15 in 10.0 mi South 11.5 mph 19.6 mph N/A   Scattered Clouds
4:15 PM 87.3 °F - 48.2 °F 26% 30.15 in 10.0 mi South 15.0 mph 19.6 mph N/A   Scattered Clouds
4:35 PM 87.3 °F - 48.2 °F 26% 30.15 in 10.0 mi South 10.4 mph 20.7 mph N/A   Scattered Clouds
4:55 PM 88.0 °F - 48.0 °F 25% 30.15 in 10.0 mi SSE 12.7 mph 16.1 mph N/A   Clear
5:15 PM 87.1 °F - 49.5 °F 27% 30.14 in 10.0 mi South 11.5 mph 19.6 mph N/A   Clear
5:35 PM 87.1 °F - 49.1 °F 27% 30.14 in 10.0 mi South 16.1 mph 20.7 mph N/A   Clear
5:55 PM 86.9 °F - 48.2 °F 26% 30.14 in 10.0 mi SSE 11.5 mph 20.7 mph N/A   Clear
6:15 PM 86.4 °F - 48.9 °F 27% 30.13 in 10.0 mi South 13.8 mph - N/A   Clear
6:35 PM 86.0 °F - 49.1 °F 28% 30.13 in 10.0 mi South 13.8 mph 18.4 mph N/A   Clear
6:55 PM 85.5 °F - 49.8 °F 29% 30.13 in 10.0 mi South 16.1 mph - N/A   Clear
7:15 PM 84.7 °F - 50.4 °F 30% 30.13 in 10.0 mi South 10.4 mph 16.1 mph N/A   Clear
7:35 PM 84.2 °F - 52.9 °F 34% 30.13 in 10.0 mi South 11.5 mph - N/A   Clear
7:55 PM 83.7 °F 82.5 °F 54.9 °F 37% 30.14 in 10.0 mi South 11.5 mph - N/A   Mostly Cloudy
8:15 PM 82.6 °F 82.0 °F 55.8 °F 40% 30.14 in 10.0 mi SSE 9.2 mph - N/A   Mostly Cloudy
8:35 PM 80.8 °F 81.0 °F 57.7 °F 45% 30.14 in 10.0 mi SE 8.1 mph - N/A   Scattered Clouds
8:55 PM 79.2 °F - 58.5 °F 49% 30.14 in 10.0 mi SE 6.9 mph - N/A   Clear
9:38 PM 77.0 °F - 59.0 °F 54% 30.15 in 10.0 mi SSE 5.8 mph - N/A   Clear
10:15 PM 74.8 °F - 60.1 °F 60% 30.16 in 10.0 mi SE 6.9 mph - N/A   Clear
10:35 PM 74.3 °F - 60.1 °F 61% 30.17 in 10.0 mi SE 5.8 mph - N/A   Clear
10:55 PM 74.5 °F - 60.1 °F 61% 30.17 in 10.0 mi SSE 5.8 mph - N/A   Clear
11:15 PM 73.6 °F - 60.8 °F 64% 30.17 in 10.0 mi SE 5.8 mph - N/A   Clear
11:35 PM 72.9 °F - 61.0 °F 66% 30.17 in 10.0 mi SSE 5.8 mph - N/A   Clear
11:55 PM 72.5 °F - 61.5 °F 68% 30.17 in 10.0 mi SE 5.8 mph - N/A   Clear